This is the latest recevied weather packets stored in our database for station/object KH6DH-13. If no packets are shown the sender has not sent any weather packets the latest 10 day(s).
| Time | Temp. | Humidity | Pressure | Rain* | Wind** | Luminosity | Snow |
|---|---|---|---|---|---|---|---|
| 1788661328 | 28.89° C | - | - | 0 mm | 0.45 m/s, 6° | - | - |
| 1788660727 | 29.44° C | - | - | 0 mm | 0.45 m/s, 129° | - | - |
| 1788660126 | 29.44° C | - | - | 0 mm | 2.68 m/s, 58° | - | - |
| 1788659525 | 28.89° C | - | - | 0 mm | 3.58 m/s, 87° | - | - |
| 1788658923 | 28.33° C | - | - | 0 mm | 0.89 m/s, 117° | - | - |
| 1788658322 | 28.33° C | - | - | 0 mm | 2.24 m/s, 134° | - | - |
| 1788657721 | 28.89° C | - | - | 0 mm | 1.79 m/s, 108° | - | - |
| 1788657120 | 28.33° C | - | - | 0 mm | 3.58 m/s, 18° | - | - |
| 1788656519 | 28.33° C | - | - | 0 mm | 2.24 m/s, 77° | - | - |
| 1788655918 | 27.22° C | - | - | 0 mm | 2.24 m/s, 301° | - | - |
| 1788655317 | 27.22° C | - | - | 0 mm | 2.24 m/s, 146° | - | - |
| 1788654716 | 27.22° C | - | - | 0 mm | 0 m/s | - | - |
| 1788654115 | 27.78° C | - | - | 0 mm | 0.89 m/s, 42° | - | - |
| 1788653514 | 27.78° C | - | - | 0 mm | 0.89 m/s, 93° | - | - |
| 1788652913 | 28.33° C | - | - | 0 mm | 1.79 m/s, 94° | - | - |
| 1788652312 | 28.33° C | - | - | 0 mm | 2.24 m/s, 55° | - | - |
| 1788651711 | 28.89° C | - | - | 0 mm | 2.68 m/s, 80° | - | - |
| 1788651110 | 28.33° C | - | - | 0.25 mm | 0.45 m/s, 141° | - | - |
| 1788650509 | 28.89° C | - | - | 0.25 mm | 1.34 m/s, 31° | - | - |
| 1788649908 | 28.89° C | - | - | 0.25 mm | 1.79 m/s, 62° | - | - |
| 1788649307 | 28.89° C | - | - | 0.25 mm | 1.79 m/s, 41° | - | - |
| 1788648706 | 28.89° C | - | - | 0.25 mm | 2.68 m/s, 183° | - | - |
| 1788648105 | 28.33° C | - | - | 0.25 mm | 1.34 m/s, 246° | - | - |
| 1788647504 | 28.33° C | - | - | 0 mm | 1.34 m/s, 117° | - | - |
| 1788646903 | 28.33° C | - | - | 0 mm | 1.79 m/s, 98° | - | - |
* Rain latest hour (hover to see other rain measurements)
** Current wind speed in m/s (hover to see current wind gust speed)